Hourly Data Report for May 05, 2017

FISHER BRANCH (AUT)
MANITOBA

51°05'00.100" N
97°33'16.200" W
253.00 m
50309J6
71442
WSZ

Download Data

Hourly Data (May 2017)
Hourly Data Report for May 5, 2017
TIME
LST
Temp Definition
°C
Dew Point Definition
°C
Rel Hum Definition
%
Precip. Amount Definition
mm

Wind Dir Definition
10's deg

Wind Spd Definition
km/h
Visibility Definition
km
Stn Press Definition
kPa
Hmdx Definition


Wind Chill Definition


Weather Definition


00:00 14.0 2.3 45 0.0 20 16   98.11     LegendNANA
01:00 14.3 0.6 39 0.0 23 14   98.10     LegendNANA
02:00 13.0 2.1 48 0.0 22 14   98.07     LegendNANA
03:00 9.2 1.4 58 0.0 23 8   98.05     LegendNANA
04:00 8.1 2.8 69 0.0 27 5   98.11     LegendNANA
05:00 6.2 1.9 74 0.0 29 9   98.15     LegendNANA
06:00 7.7 3.3 73 0.0 32 8   98.23     LegendNANA
07:00 12.5 4.6 59 0.0 34 10   98.28     LegendNANA
08:00 14.2 5.0 54 0.0 36 10   98.30     LegendNANA
09:00 15.8 4.9 48 0.0 35 13   98.34     LegendNANA
10:00 18.2 4.2 39 0.0 1 13   98.37     LegendNANA
11:00 20.2 2.7 32 0.0 3 15   98.39     LegendNANA
12:00 20.7 1.4 28 0.0 3 19   98.40     LegendNANA
13:00 21.2 0.6 25 0.0 35 14   98.41     LegendNANA
14:00 21.6 -0.4 23 0.0 36 17   98.43     LegendNANA
15:00 20.4 -1.6 23 0.0 35 22   98.44     LegendNANA
16:00 20.3 -1.8 23 0.0 35 23   98.46     LegendNANA
17:00 19.4 -2.5 23 0.0 35 20   98.48     LegendNANA
18:00 17.9 -2.5 25 0.0 35 24   98.51     LegendNANA
19:00 16.5 -4.0 24 0.0 35 15   98.52     LegendNANA
20:00 13.5 -2.9 32 0.0 35 11   98.55     LegendNANA
21:00 11.7 -2.2 38 0.0 35 12   98.59     LegendNANA
22:00 9.5 -1.4 46 0.0 35 10   98.61     LegendNANA
23:00 7.6 -0.5 56 0.0 1 8   98.63     LegendNANA

Notes on Data Quality.

Legend

  • E = Estimated
  • M = Missing
  • NA = Not Available*
  • [empty] = Indicates an unobserved value
Date modified: